User: anonymous   Login
Location: El Corozo
(10.5833°N, 66.9667°W)
Time: 21:16:49
(UTC+00:00)
Language:

Cosmos 1536 Rocket - Orbit

View from above orbital plane
View from above orbital plane
View from above satellite
View from above satellite

Ground track
Ground track

The orbit data is extracted from the following two-line orbital elements,

1 14700U 84013B   24206.20266012  .00000978  00000-0  11290-3 0  9991
2 14700  82.5347 252.3074 0020493  55.2250   5.3725 14.84481338164482
Epoch (UTC): 24 July 2024 04:51:49
Eccentricity: 0.0020493
inclination: 82.5347°
perigee height: 601 km
apogee height: 629 km
right ascension of ascending node: 252.3074°
argument of perigee: 55.2250°
revolutions per day: 14.84481338
mean anomaly at epoch: 5.3725°
orbit number at epoch: 16448

The dashed part of the orbit path shows where the satellite is in the earth's shadow,  

DLR